User: anonymous   Login
Location: Unspecified
(0.0000°N, 0.0000°E)
Time: 10:18:04
(UTC+00:00)
Language:

COSMOS 2390 - Orbit

View from above orbital plane
View from above orbital plane
View from above satellite
View from above satellite

Ground track
Ground track

The orbit data is extracted from the following two-line orbital elements,

1 27464U 02036A   17080.94371559 +.00000019 +00000-0 +65720-4 0  9997
2 27464 082.4826 294.6308 0025893 078.1828 282.2148 12.44562633668078
Epoch (UTC): 21 March 2017 22:38:57
Eccentricity: 0.0025893
inclination: 82.4826°
perigee height: 1467 km
apogee height: 1507 km
right ascension of ascending node: 294.6308°
argument of perigee: 78.1828°
revolutions per day: 12.44562633
mean anomaly at epoch: 282.2148°
orbit number at epoch: 66807

The dashed part of the orbit path shows where the satellite is in the earth's shadow,  

DLR